• Em Portugal
  • Lista de países
  • Para 7 dias
  • Temperatura da água
  • Mapas de satélite
  • Mapa do tempo
  • Widgets de tempo
  • user-avatar
    Iniciar Sessão

    Previsão horária em Florianópolis

    Hoje, 17 Julho, Terça-feira

    Tempo Temperatura Precipitação Vento Pressão Humidade
    00:00 +21°C° 0,7 mm 2 m/s 767 mmHg 98%
    01:00 +21°C° 0,5 mm 2 m/s 767 mmHg 98%
    02:00 +20°C° 0,5 mm 2 m/s 767 mmHg 98%
    03:00 +21°C° 0 mm 1 m/s 767 mmHg 98%
    04:00 +21°C° 0,1 mm 1 m/s 767 mmHg 98%
    05:00 +20°C° 0,1 mm 2 m/s 767 mmHg 98%
    06:00 +20°C° 0,1 mm 2 m/s 767 mmHg 99%
    07:00 +20°C° 0 mm 2 m/s 767 mmHg 98%
    08:00 +21°C° 0 mm 2 m/s 767 mmHg 97%
    09:00 +21°C° 0 mm 2 m/s 767 mmHg 96%
    10:00 +23°C° 0,1 mm 2 m/s 767 mmHg 94%
    11:00 +23°C° 0,1 mm 2 m/s 767 mmHg 91%
    12:00 +24°C° 0,1 mm 2 m/s 767 mmHg 89%
    13:00 +24°C° 0 mm 3 m/s 767 mmHg 87%
    14:00 +25°C° 0 mm 3 m/s 766 mmHg 84%
    15:00 +26°C° 0 mm 3 m/s 766 mmHg 82%
    16:00 +25°C° 0 mm 3 m/s 766 mmHg 86%
    17:00 +24°C° 0 mm 3 m/s 765 mmHg 91%
    18:00 +21°C° 0 mm 3 m/s 765 mmHg 95%
    19:00 +21°C° 0 mm 3 m/s 765 mmHg 96%
    20:00 +21°C° 0 mm 3 m/s 766 mmHg 96%
    21:00 +21°C° 0 mm 3 m/s 766 mmHg 97%
    22:00 +21°C° 0 mm 3 m/s 766 mmHg 97%
    23:00 +20°C° 0 mm 3 m/s 766 mmHg 97%

    Amanhã, 18 Julho, Quarta-feira

    Tempo Temperatura Precipitação Vento Pressão Humidade
    00:00 +20°C° 0 mm 3 m/s 766 mmHg 97%
    01:00 +20°C° 0 mm 3 m/s 765 mmHg 96%
    02:00 +20°C° 0 mm 3 m/s 765 mmHg 96%
    03:00 +20°C° 0 mm 3 m/s 765 mmHg 96%
    04:00 +20°C° 0 mm 3 m/s 765 mmHg 96%
    05:00 +19°C° 0 mm 3 m/s 764 mmHg 96%
    06:00 +19°C° 0 mm 3 m/s 764 mmHg 95%
    07:00 +20°C° 0 mm 3 m/s 764 mmHg 92%
    08:00 +21°C° 0 mm 3 m/s 765 mmHg 88%
    09:00 +22°C° 0 mm 3 m/s 765 mmHg 84%
    10:00 +26°C° 0 mm 4 m/s 765 mmHg 71%
    11:00 +28°C° 0 mm 4 m/s 764 mmHg 57%
    12:00 +32°C° 0 mm 4 m/s 764 mmHg 44%
    13:00 +32°C° 0 mm 4 m/s 763 mmHg 43%
    14:00 +33°C° 0 mm 4 m/s 763 mmHg 42%
    15:00 +33°C° 0 mm 4 m/s 762 mmHg 41%
    16:00 +30°C° 0 mm 4 m/s 762 mmHg 53%
    17:00 +27°C° 0 mm 4 m/s 762 mmHg 65%
    18:00 +23°C° 0 mm 4 m/s 762 mmHg 76%
    19:00 +22°C° 0 mm 3 m/s 762 mmHg 79%
    20:00 +22°C° 0 mm 3 m/s 763 mmHg 82%
    21:00 +21°C° 0 mm 3 m/s 763 mmHg 84%
    22:00 +20°C° 0 mm 3 m/s 763 mmHg 84%
    23:00 +20°C° 0 mm 3 m/s 763 mmHg 84%

    Depois de amanhã, 19 Julho, Quinta-feira

    Tempo Temperatura Precipitação Vento Pressão Humidade
    00:00 +20°C° 0 mm 3 m/s 763 mmHg 83%
    01:00 +20°C° 0 mm 3 m/s 763 mmHg 84%
    02:00 +20°C° 0 mm 3 m/s 763 mmHg 84%
    03:00 +19°C° 0 mm 3 m/s 763 mmHg 84%
    04:00 +19°C° 0 mm 3 m/s 763 mmHg 83%
    05:00 +19°C° 0 mm 3 m/s 763 mmHg 83%
    06:00 +19°C° 0 mm 3 m/s 763 mmHg 83%
    07:00 +20°C° 0 mm 2 m/s 763 mmHg 77%
    08:00 +23°C° 0 mm 2 m/s 763 mmHg 71%
    09:00 +25°C° 0 mm 2 m/s 764 mmHg 65%
    10:00 +27°C° 0 mm 2 m/s 763 mmHg 57%
    11:00 +29°C° 0 mm 3 m/s 763 mmHg 49%
    12:00 +33°C° 0 mm 3 m/s 763 mmHg 41%
    13:00 +33°C° 0 mm 3 m/s 762 mmHg 41%
    14:00 +33°C° 0 mm 3 m/s 762 mmHg 41%
    15:00 +33°C° 0 mm 4 m/s 761 mmHg 41%
    16:00 +30°C° 0 mm 4 m/s 761 mmHg 53%
    17:00 +27°C° 0 mm 4 m/s 761 mmHg 64%
    18:00 +25°C° 0 mm 3 m/s 761 mmHg 75%
    19:00 +24°C° 0 mm 3 m/s 762 mmHg 78%
    20:00 +22°C° 0 mm 3 m/s 762 mmHg 81%
    21:00 +21°C° 0 mm 3 m/s 762 mmHg 84%
    22:00 +21°C° 0 mm 3 m/s 762 mmHg 84%
    23:00 +21°C° 0 mm 3 m/s 762 mmHg 85%

    20 Julho, Sexta-feira

    Tempo Temperatura Precipitação Vento Pressão Humidade
    00:00 +20°C° 0 mm 3 m/s 762 mmHg 85%
    01:00 +20°C° 0 mm 3 m/s 762 mmHg 85%
    02:00 +20°C° 0 mm 3 m/s 762 mmHg 86%
    03:00 +20°C° 0 mm 3 m/s 762 mmHg 86%
    04:00 +20°C° 0 mm 3 m/s 761 mmHg 87%
    05:00 +20°C° 0 mm 3 m/s 761 mmHg 88%
    06:00 +20°C° 0 mm 3 m/s 761 mmHg 89%
    07:00 +21°C° 0 mm 3 m/s 761 mmHg 82%
    08:00 +24°C° 0 mm 3 m/s 762 mmHg 75%
    09:00 +25°C° 0 mm 3 m/s 762 mmHg 68%
    10:00 +27°C° 0 mm 3 m/s 761 mmHg 59%
    11:00 +29°C° 0 mm 4 m/s 761 mmHg 50%
    12:00 +32°C° 0 mm 4 m/s 760 mmHg 41%
    13:00 +33°C° 0 mm 4 m/s 760 mmHg 40%
    14:00 +33°C° 0 mm 4 m/s 759 mmHg 38%
    15:00 +34°C° 0 mm 4 m/s 758 mmHg 37%
    16:00 +30°C° 0 mm 4 m/s 758 mmHg 48%
    17:00 +28°C° 0 mm 4 m/s 758 mmHg 58%
    18:00 +25°C° 0 mm 4 m/s 758 mmHg 69%
    19:00 +23°C° 0 mm 4 m/s 759 mmHg 72%
    20:00 +24°C° 0 mm 3 m/s 759 mmHg 75%
    21:00 +22°C° 0 mm 3 m/s 759 mmHg 78%
    22:00 +22°C° 0 mm 4 m/s 759 mmHg 76%
    23:00 +22°C° 0 mm 4 m/s 759 mmHg 74%

    21 Julho, Sábado

    Tempo Temperatura Precipitação Vento Pressão Humidade
    00:00 +22°C° 0 mm 4 m/s 758 mmHg 72%
    01:00 +22°C° 0 mm 4 m/s 758 mmHg 71%
    02:00 +22°C° 0 mm 4 m/s 758 mmHg 71%
    03:00 +22°C° 0 mm 4 m/s 757 mmHg 70%
    04:00 +22°C° 0 mm 3 m/s 758 mmHg 70%
    05:00 +22°C° 0 mm 3 m/s 758 mmHg 71%
    06:00 +23°C° 0 mm 2 m/s 759 mmHg 72%
    07:00 +22°C° 0 mm 3 m/s 760 mmHg 69%
    08:00 +22°C° 0 mm 3 m/s 761 mmHg 67%
    09:00 +21°C° 0 mm 4 m/s 762 mmHg 64%
    10:00 +22°C° 0 mm 3 m/s 762 mmHg 53%
    11:00 +24°C° 0 mm 3 m/s 762 mmHg 43%
    12:00 +25°C° 0 mm 3 m/s 762 mmHg 32%
    13:00 +25°C° 0 mm 3 m/s 762 mmHg 31%
    14:00 +25°C° 0 mm 3 m/s 761 mmHg 29%
    15:00 +26°C° 0 mm 3 m/s 761 mmHg 28%
    16:00 +22°C° 0 mm 3 m/s 762 mmHg 35%
    17:00 +20°C° 0 mm 3 m/s 762 mmHg 43%
    18:00 +18°C° 0 mm 4 m/s 763 mmHg 50%
    19:00 +17°C° 0 mm 3 m/s 763 mmHg 55%
    20:00 +14°C° 0 mm 3 m/s 764 mmHg 60%
    21:00 +13°C° 0 mm 3 m/s 765 mmHg 65%
    22:00 +13°C° 0 mm 3 m/s 765 mmHg 68%
    23:00 +12°C° 0 mm 3 m/s 765 mmHg 71%

    22 Julho, Domingo

    Tempo Temperatura Precipitação Vento Pressão Humidade
    00:00 +12°C° 0 mm 2 m/s 766 mmHg 75%
    01:00 +12°C° 0 mm 2 m/s 766 mmHg 76%
    02:00 +12°C° 0 mm 2 m/s 766 mmHg 77%
    03:00 +12°C° 0 mm 2 m/s 766 mmHg 79%
    04:00 +12°C° 0 mm 2 m/s 766 mmHg 81%
    05:00 +12°C° 0 mm 2 m/s 767 mmHg 83%
    06:00 +12°C° 0 mm 1 m/s 767 mmHg 86%
    07:00 +13°C° 0 mm 1 m/s 767 mmHg 84%
    08:00 +15°C° 0 mm 1 m/s 768 mmHg 82%
    09:00 +18°C° 0 mm 1 m/s 768 mmHg 80%
    10:00 +17°C° 0 mm 2 m/s 768 mmHg 79%
    11:00 +18°C° 0 mm 2 m/s 768 mmHg 78%
    12:00 +19°C° 0 mm 2 m/s 768 mmHg 77%
    13:00 +19°C° 0 mm 3 m/s 767 mmHg 78%
    14:00 +19°C° 0 mm 3 m/s 767 mmHg 79%
    15:00 +19°C° 0 mm 3 m/s 766 mmHg 80%
    16:00 +19°C° 0 mm 3 m/s 766 mmHg 84%
    17:00 +18°C° 0 mm 3 m/s 766 mmHg 88%
    18:00 +18°C° 0 mm 4 m/s 767 mmHg 92%
    19:00 +18°C° 0 mm 4 m/s 767 mmHg 92%
    20:00 +18°C° 0 mm 4 m/s 767 mmHg 93%
    21:00 +18°C° 0 mm 4 m/s 767 mmHg 94%
    22:00 +18°C° 0,1 mm 4 m/s 767 mmHg 95%
    23:00 +18°C° 0,1 mm 4 m/s 767 mmHg 96%
    Mostrar mais